When you browse on this site, cookies collect data to enhance your experience and personalize the content and advertising you see.
Visit our Privacy Policy to learn more. By continuing to use the site, you agree to this use of cookies and data.
  • In Hungary
  • List of Countries
  • For 7 days
  • Water Temperature
  • Weather Map
  • News
  • Weather Widgets
  • user-avatar
    Login

    Hourly Weather Zele

    Today, 15 December, Sunday

    Time Temperature Precipitation Wind Pressure Humidity
    00:00 +5°C° 0 mm 8 mps 744 mmHg 78%
    01:00 +6°C° 0.4 mm 8 mps 744 mmHg 82%
    02:00 +6°C° 0.4 mm 8 mps 743 mmHg 85%
    03:00 +7°C° 0.4 mm 8 mps 742 mmHg 88%
    04:00 +7°C° 0.1 mm 8 mps 743 mmHg 81%
    05:00 +7°C° 0.1 mm 8 mps 744 mmHg 74%
    06:00 +6°C° 0.1 mm 9 mps 745 mmHg 67%
    07:00 +6°C° 0 mm 8 mps 746 mmHg 68%
    08:00 +5°C° 0 mm 7 mps 747 mmHg 68%
    09:00 +5°C° 0 mm 6 mps 748 mmHg 69%
    10:00 +6°C° 0 mm 7 mps 748 mmHg 66%
    11:00 +6°C° 0 mm 8 mps 749 mmHg 63%
    12:00 +7°C° 0 mm 9 mps 749 mmHg 60%
    13:00 +7°C° 0 mm 8 mps 750 mmHg 63%
    14:00 +6°C° 0 mm 7 mps 750 mmHg 65%
    15:00 +6°C° 0 mm 7 mps 751 mmHg 67%
    16:00 +7°C° 0 mm 6 mps 751 mmHg 69%
    17:00 +5°C° 0 mm 6 mps 751 mmHg 71%
    18:00 +5°C° 0 mm 6 mps 752 mmHg 73%
    19:00 +4°C° 0 mm 6 mps 752 mmHg 74%
    20:00 +5°C° 0 mm 5 mps 752 mmHg 75%
    21:00 +5°C° 0 mm 5 mps 753 mmHg 75%
    22:00 +5°C° 0 mm 5 mps 753 mmHg 78%
    23:00 +5°C° 0 mm 5 mps 753 mmHg 80%

    Tomorrow, 16 December, Monday

    Time Temperature Precipitation Wind Pressure Humidity
    00:00 +5°C° 0 mm 4 mps 753 mmHg 82%
    01:00 +5°C° 0 mm 4 mps 753 mmHg 84%
    02:00 +5°C° 0 mm 4 mps 752 mmHg 85%
    03:00 +4°C° 0 mm 4 mps 752 mmHg 87%
    04:00 +5°C° 0 mm 4 mps 752 mmHg 87%
    05:00 +5°C° 0 mm 4 mps 752 mmHg 88%
    06:00 +5°C° 0 mm 4 mps 752 mmHg 88%
    07:00 +6°C° 0 mm 4 mps 752 mmHg 88%
    08:00 +6°C° 0 mm 4 mps 752 mmHg 88%
    09:00 +6°C° 0 mm 4 mps 752 mmHg 88%
    10:00 +7°C° 0 mm 4 mps 752 mmHg 86%
    11:00 +8°C° 0 mm 4 mps 752 mmHg 84%
    12:00 +8°C° 0 mm 4 mps 752 mmHg 82%
    13:00 +9°C° 0.4 mm 3 mps 751 mmHg 85%
    14:00 +8°C° 0.4 mm 2 mps 751 mmHg 89%
    15:00 +8°C° 0.4 mm 2 mps 751 mmHg 93%
    16:00 +8°C° 0.8 mm 2 mps 751 mmHg 94%
    17:00 +7°C° 0.8 mm 2 mps 751 mmHg 95%
    18:00 +7°C° 0.8 mm 2 mps 750 mmHg 96%
    19:00 +7°C° 0.3 mm 2 mps 750 mmHg 95%
    20:00 +7°C° 0.3 mm 2 mps 750 mmHg 95%
    21:00 +7°C° 0.3 mm 2 mps 750 mmHg 95%
    22:00 +8°C° 0 mm 2 mps 750 mmHg 94%
    23:00 +8°C° 0 mm 2 mps 750 mmHg 93%

    Day after tomorrow, 17 December, Tuesday

    Time Temperature Precipitation Wind Pressure Humidity
    00:00 +8°C° 0 mm 2 mps 749 mmHg 92%
    01:00 +8°C° 0 mm 2 mps 749 mmHg 92%
    02:00 +8°C° 0 mm 2 mps 749 mmHg 91%
    03:00 +9°C° 0 mm 2 mps 749 mmHg 90%
    04:00 +9°C° 0 mm 3 mps 749 mmHg 88%
    05:00 +8°C° 0 mm 4 mps 749 mmHg 86%
    06:00 +10°C° 0 mm 4 mps 748 mmHg 83%
    07:00 +10°C° 0 mm 4 mps 749 mmHg 82%
    08:00 +9°C° 0 mm 5 mps 749 mmHg 81%
    09:00 +9°C° 0 mm 5 mps 750 mmHg 80%
    10:00 +10°C° 0 mm 5 mps 750 mmHg 78%
    11:00 +12°C° 0 mm 5 mps 750 mmHg 76%
    12:00 +12°C° 0 mm 5 mps 750 mmHg 74%
    13:00 +12°C° 0 mm 5 mps 750 mmHg 75%
    14:00 +12°C° 0 mm 5 mps 750 mmHg 77%
    15:00 +12°C° 0 mm 5 mps 749 mmHg 78%
    16:00 +12°C° 0.1 mm 5 mps 750 mmHg 81%
    17:00 +10°C° 0.1 mm 5 mps 750 mmHg 83%
    18:00 +11°C° 0.1 mm 4 mps 750 mmHg 86%
    19:00 +11°C° 0 mm 4 mps 751 mmHg 86%
    20:00 +10°C° 0 mm 5 mps 751 mmHg 86%
    21:00 +10°C° 0 mm 5 mps 752 mmHg 86%
    22:00 +11°C° 0.2 mm 4 mps 752 mmHg 88%
    23:00 +10°C° 0.2 mm 4 mps 753 mmHg 90%

    18 December, Wednesday

    Time Temperature Precipitation Wind Pressure Humidity
    00:00 +10°C° 0.2 mm 4 mps 753 mmHg 92%
    01:00 +8°C° 0.1 mm 4 mps 754 mmHg 91%
    02:00 +9°C° 0.1 mm 3 mps 755 mmHg 91%
    03:00 +8°C° 0.1 mm 2 mps 755 mmHg 90%
    04:00 +8°C° 0 mm 2 mps 756 mmHg 90%
    05:00 +7°C° 0 mm 2 mps 756 mmHg 91%
    06:00 +8°C° 0 mm 1 mps 757 mmHg 91%
    07:00 +8°C° 0 mm 1 mps 757 mmHg 88%
    08:00 +8°C° 0 mm 1 mps 758 mmHg 85%
    09:00 +9°C° 0 mm 1 mps 758 mmHg 82%
    10:00 +8°C° 0 mm 2 mps 758 mmHg 79%
    11:00 +8°C° 0 mm 2 mps 758 mmHg 76%
    12:00 +9°C° 0 mm 2 mps 758 mmHg 72%
    13:00 +8°C° 0 mm 3 mps 758 mmHg 74%
    14:00 +8°C° 0 mm 3 mps 757 mmHg 76%
    15:00 +8°C° 0 mm 3 mps 757 mmHg 78%
    16:00 +8°C° 0 mm 3 mps 757 mmHg 81%
    17:00 +7°C° 0 mm 3 mps 757 mmHg 83%
    18:00 +7°C° 0 mm 3 mps 756 mmHg 86%
    19:00 +7°C° 0 mm 3 mps 756 mmHg 88%
    20:00 +7°C° 0 mm 3 mps 756 mmHg 90%
    21:00 +7°C° 0 mm 3 mps 756 mmHg 91%
    22:00 +7°C° 0 mm 3 mps 755 mmHg 93%
    23:00 +7°C° 0 mm 3 mps 755 mmHg 94%

    19 December, Thursday

    Time Temperature Precipitation Wind Pressure Humidity
    00:00 +7°C° 0 mm 3 mps 754 mmHg 96%
    01:00 +7°C° 0 mm 3 mps 754 mmHg 95%
    02:00 +7°C° 0 mm 3 mps 754 mmHg 94%
    03:00 +7°C° 0 mm 3 mps 753 mmHg 94%
    04:00 +7°C° 0 mm 3 mps 753 mmHg 93%
    05:00 +7°C° 0 mm 3 mps 752 mmHg 92%
    06:00 +7°C° 0 mm 3 mps 752 mmHg 91%
    07:00 +7°C° 0 mm 4 mps 752 mmHg 89%
    08:00 +7°C° 0 mm 4 mps 751 mmHg 87%
    09:00 +8°C° 0 mm 5 mps 751 mmHg 85%
    10:00 +8°C° 0.1 mm 5 mps 751 mmHg 85%
    11:00 +8°C° 0.1 mm 5 mps 751 mmHg 84%
    12:00 +9°C° 0.1 mm 5 mps 751 mmHg 83%
    13:00 +9°C° 0.5 mm 5 mps 751 mmHg 86%
    14:00 +10°C° 0.5 mm 4 mps 750 mmHg 88%
    15:00 +8°C° 0.5 mm 4 mps 750 mmHg 90%
    16:00 +8°C° 0.4 mm 4 mps 750 mmHg 92%
    17:00 +9°C° 0.4 mm 3 mps 750 mmHg 93%
    18:00 +9°C° 0.4 mm 3 mps 750 mmHg 95%
    19:00 +9°C° 0.7 mm 2 mps 749 mmHg 95%
    20:00 +9°C° 0.7 mm 2 mps 749 mmHg 96%
    21:00 +9°C° 0.7 mm 2 mps 748 mmHg 97%
    22:00 +9°C° 0.5 mm 3 mps 748 mmHg 96%
    23:00 +9°C° 0.5 mm 3 mps 747 mmHg 95%

    20 December, Friday

    Time Temperature Precipitation Wind Pressure Humidity
    00:00 +10°C° 0.5 mm 4 mps 747 mmHg 94%
    01:00 +10°C° 0.1 mm 4 mps 746 mmHg 92%
    02:00 +10°C° 0.1 mm 4 mps 746 mmHg 89%
    03:00 +10°C° 0.1 mm 4 mps 745 mmHg 87%
    04:00 +10°C° 0.1 mm 4 mps 745 mmHg 86%
    05:00 +10°C° 0.1 mm 4 mps 744 mmHg 85%
    06:00 +10°C° 0.1 mm 4 mps 744 mmHg 84%
    07:00 +10°C° 0 mm 4 mps 744 mmHg 84%
    08:00 +9°C° 0 mm 3 mps 743 mmHg 83%
    09:00 +9°C° 0 mm 3 mps 743 mmHg 83%
    10:00 +9°C° 0 mm 3 mps 743 mmHg 80%
    11:00 +10°C° 0 mm 2 mps 742 mmHg 78%
    12:00 +10°C° 0 mm 2 mps 742 mmHg 76%
    13:00 +10°C° 0.5 mm 2 mps 742 mmHg 81%
    14:00 +10°C° 0.5 mm 1 mps 741 mmHg 86%
    15:00 +9°C° 0.5 mm 0 mps 741 mmHg 91%
    16:00 +10°C° 1.4 mm 1 mps 741 mmHg 92%
    17:00 +9°C° 1.4 mm 2 mps 741 mmHg 93%
    18:00 +8°C° 1.4 mm 3 mps 740 mmHg 94%
    19:00 +8°C° 1.1 mm 3 mps 740 mmHg 93%
    20:00 +8°C° 1.1 mm 3 mps 740 mmHg 92%
    21:00 +8°C° 1.1 mm 3 mps 740 mmHg 92%
    22:00 +8°C° 0.6 mm 3 mps 740 mmHg 92%
    23:00 +8°C° 0.6 mm 3 mps 740 mmHg 93%
    Show more